Regional Weather Roundup
Issued by NWS

Home | Current Version | Previous Version | Graphics & Text | Print | Product List | Glossary On
Versions: 1 2 3 4 5 6 7 8 9 10 11 12 13 14 15 16 17 18 19 20 21 22 23 24 25 26 27
000
ASUS45 KSLC 230910
RWRUT

UTAH REGIONAL WEATHER ROUNDUP
NATIONAL WEATHER SERVICE SALT LAKE CITY UT
300 AM MDT TUE AUG 23 2016

UTZ001>011-023>025-231000-

NORTHERN UTAH

CITY           SKY/WX    TMP DP  RH WIND       PRES   REMARKS
BRIGHAM CITY     N/A     62  29  29 CALM      30.01R
HILL AFB       PTCLDY    69  27  20 SE10      30.02S
LOGAN          PTCLDY    52  36  54 NE5       30.03R
OGDEN          PTCLDY    65  26  23 S7        30.00R
PROVO AIRPORT  CLOUDY    68  43  40 SE14      30.05S
SALT LAKE CITY PTCLDY    73  38  27 S6        29.99S
VERNAL         CLOUDY    61  40  45 NW8       30.10S
WENDOVER       PTCLDY    68  25  19 NW6       30.01S
HEBER CITY     MOCLDY    54  37  54 CALM      30.10S
WEST JORDAN    MOCLDY    69  43  38 S12       30.04R

$$

UTZ012>022-026-027-231000-

SOUTHERN/CENTRAL UTAH

CITY           SKY/WX    TMP DP  RH WIND       PRES   REMARKS
BLANDING       MOCLDY    61  46  56 NW6       30.23S
BRYCE CANYON   LGT RAIN  52  47  83 W7        30.27F
CEDAR CITY     CLOUDY    58  49  72 NE5       30.16R
DELTA          CLOUDY    64  43  45 SE3       30.08S
MILFORD        CLOUDY    63  52  67 SW23      30.08F
MOAB/CYNLANDS  CLOUDY    65  54  67 SE9       30.07R
PRICE          MOCLDY    60  42  51 NE6       30.18S
ST GEORGE      PTSUNNY   72  52  49 S7        30.04S

$$

REGIONAL REPORTS     COLORADO/ARIZONA

CITY           SKY/WX    TMP DP  RH WIND       PRES   REMARKS
CRAIG, CO      CLOUDY    48  41  76 E3        30.17R
GRAND JUNCTION PTCLDY    63  52  67 CALM      30.11S
RIFLE          CLEAR     56  47  71 E7        30.16S
MONTROSE       CLEAR     55  44  66 S9        30.20S
CORTEZ         PTCLDY    53  49  86 SE3       30.18S
PAGE, AZ       CLOUDY    70  46  42 CALM      30.07R
GRAND CANYON   CLOUDY    57  49  74 W3        30.26S
KINGMAN        CLOUDY    64  57  78 SE16      30.06F
FLAGSTAFF      MOCLDY    50  47  89 W5        30.27S

$$

REGIONAL REPORTS    NEVADA/IDAHO/WYOMING

CITY           SKY/WX    TMP DP  RH WIND       PRES   REMARKS
LAS VEGAS, NV  CLOUDY    73  57  57 N3        30.00F
ELY            MOCLDY    50  42  74 SE7       30.21R
ELKO           CLOUDY    69  30  23 W7        30.08R
POCATELLO, ID  CLEAR     59  17  19 S8        30.02S
BURLEY         CLEAR     51  33  50 SW5       30.00R
EVANSTON, WY   CLOUDY    58  23  26 S3        30.19S
ROCK SPRINGS   CLOUDY    55  12  18 SW10      30.14R

$$




USA.gov is the U.S. government's official web portal to all federal, state and local government web resources and services.